Location: Unspecified
(20.0000°S, 0.0000°E)
Time: 12:02:25
(UTC+00:00)

BEESAT - Pass Details

Date: 24 August 2019
Orbit: 701 x 708 km, 98.6° (Epoch: 15 September)

Event Time Altitude Azimuth Distance (km) Brightness Sun altitude
Rises 05:36:04 0° 182° (S) 3,107 ? -9.9°
Reaches altitude 10° 05:38:31 10° 191° (SSW) 2,183 ? -9.4°
Maximum altitude 05:42:46 32° 254° (WSW) 1,191 ? -8.4°
Drops below altitude 10° 05:46:58 10° 317° (NW) 2,162 ? -7.4°
Sets 05:49:24 0° 326° (NNW) 3,074 ? -6.8°
